Tiempo cada hora Göle

Hoy, 24 Noviembre, Martes

Tiempo Temperatura Precipitaciones Viento Presión Humedad
00:00 -9°C° 0 mm 1 mps 593 mmHg 73%
01:00 -9°C° 0 mm 1 mps 593 mmHg 72%
02:00 -9°C° 0 mm 1 mps 593 mmHg 71%
03:00 -9°C° 0 mm 1 mps 593 mmHg 70%
04:00 -8°C° 0 mm 1 mps 593 mmHg 68%
05:00 -8°C° 0 mm 1 mps 592 mmHg 66%
06:00 -8°C° 0 mm 1 mps 592 mmHg 65%
07:00 -7°C° 0 mm 1 mps 593 mmHg 64%
08:00 -4°C° 0 mm 1 mps 593 mmHg 63%
09:00 -3°C° 0 mm 1 mps 594 mmHg 62%
10:00 -1°C° 0 mm 1 mps 594 mmHg 61%
11:00 0°C° 0 mm 1 mps 594 mmHg 61%
12:00 +2°C° 0 mm 1 mps 594 mmHg 61%
13:00 +2°C° 0 mm 1 mps 594 mmHg 62%
14:00 +2°C° 0 mm 1 mps 594 mmHg 63%
15:00 +2°C° 0 mm 1 mps 593 mmHg 64%
16:00 0°C° 0 mm 1 mps 592 mmHg 63%
17:00 -2°C° 0 mm 1 mps 592 mmHg 62%
18:00 -3°C° 0 mm 1 mps 591 mmHg 62%
19:00 -4°C° 0 mm 1 mps 591 mmHg 61%
20:00 -4°C° 0 mm 1 mps 591 mmHg 60%
21:00 -4°C° 0 mm 1 mps 591 mmHg 60%
22:00 -4°C° 0 mm 1 mps 591 mmHg 60%
23:00 -4°C° 0 mm 1 mps 591 mmHg 60%

Mañana, 25 Noviembre, Miércoles

Tiempo Temperatura Precipitaciones Viento Presión Humedad
00:00 -5°C° 0 mm 0 mps 591 mmHg 60%
01:00 -6°C° 0 mm 0 mps 590 mmHg 61%
02:00 -6°C° 0 mm 0 mps 590 mmHg 63%
03:00 -6°C° 0 mm 0 mps 590 mmHg 64%
04:00 -6°C° 0 mm 0 mps 590 mmHg 67%
05:00 -7°C° 0 mm 0 mps 590 mmHg 70%
06:00 -7°C° 0 mm 1 mps 589 mmHg 73%
07:00 -6°C° 0 mm 1 mps 590 mmHg 74%
08:00 -4°C° 0 mm 1 mps 590 mmHg 75%
09:00 -4°C° 0 mm 1 mps 591 mmHg 76%
10:00 -3°C° 0 mm 1 mps 591 mmHg 75%
11:00 -2°C° 0 mm 1 mps 591 mmHg 75%
12:00 -1°C° 0 mm 1 mps 591 mmHg 75%
13:00 -1°C° 0 mm 1 mps 591 mmHg 77%
14:00 -1°C° 0 mm 1 mps 590 mmHg 79%
15:00 -1°C° 0 mm 1 mps 590 mmHg 81%
16:00 -2°C° 0 mm 1 mps 590 mmHg 84%
17:00 -3°C° 0 mm 1 mps 590 mmHg 87%
18:00 -4°C° 0 mm 1 mps 590 mmHg 91%
19:00 -6°C° 0 mm 1 mps 590 mmHg 91%
20:00 -6°C° 0 mm 1 mps 590 mmHg 92%
21:00 -7°C° 0 mm 1 mps 590 mmHg 92%
22:00 -7°C° 0 mm 1 mps 590 mmHg 93%
23:00 -7°C° 0 mm 1 mps 590 mmHg 93%

Pasado mañana, 26 Noviembre, Jueves

Tiempo Temperatura Precipitaciones Viento Presión Humedad
00:00 -7°C° 0 mm 1 mps 590 mmHg 94%
01:00 -7°C° 0 mm 1 mps 590 mmHg 94%
02:00 -7°C° 0 mm 1 mps 590 mmHg 95%
03:00 -7°C° 0 mm 1 mps 590 mmHg 95%
04:00 -7°C° 0 mm 1 mps 590 mmHg 95%
05:00 -7°C° 0 mm 1 mps 590 mmHg 95%
06:00 -8°C° 0 mm 1 mps 590 mmHg 95%
07:00 -7°C° 0 mm 1 mps 591 mmHg 93%
08:00 -7°C° 0 mm 1 mps 591 mmHg 92%
09:00 -7°C° 0 mm 1 mps 591 mmHg 90%
10:00 -6°C° 0 mm 1 mps 591 mmHg 86%
11:00 -4°C° 0 mm 1 mps 591 mmHg 82%
12:00 -3°C° 0 mm 1 mps 592 mmHg 78%
13:00 -3°C° 0 mm 1 mps 591 mmHg 77%
14:00 -3°C° 0 mm 1 mps 591 mmHg 77%
15:00 -3°C° 0 mm 1 mps 591 mmHg 77%
16:00 -4°C° 0 mm 1 mps 591 mmHg 81%
17:00 -7°C° 0 mm 1 mps 590 mmHg 84%
18:00 -9°C° 0 mm 1 mps 590 mmHg 88%
19:00 -9°C° 0 mm 1 mps 590 mmHg 88%
20:00 -9°C° 0 mm 1 mps 591 mmHg 88%
21:00 -10°C° 0 mm 1 mps 591 mmHg 89%
22:00 -10°C° 0 mm 1 mps 591 mmHg 90%
23:00 -10°C° 0 mm 1 mps 591 mmHg 90%

27 Noviembre, Viernes

Tiempo Temperatura Precipitaciones Viento Presión Humedad
00:00 -10°C° 0 mm 1 mps 591 mmHg 91%
01:00 -11°C° 0 mm 1 mps 591 mmHg 91%
02:00 -11°C° 0 mm 1 mps 591 mmHg 91%
03:00 -11°C° 0 mm 1 mps 591 mmHg 91%
04:00 -11°C° 0 mm 1 mps 591 mmHg 90%
05:00 -11°C° 0 mm 1 mps 592 mmHg 88%
06:00 -11°C° 0 mm 1 mps 592 mmHg 87%
07:00 -10°C° 0 mm 1 mps 592 mmHg 84%
08:00 -9°C° 0 mm 1 mps 593 mmHg 80%
09:00 -8°C° 0 mm 1 mps 594 mmHg 77%
10:00 -6°C° 0 mm 1 mps 594 mmHg 72%
11:00 -4°C° 0 mm 1 mps 595 mmHg 67%
12:00 -2°C° 0 mm 1 mps 595 mmHg 62%
13:00 -2°C° 0 mm 1 mps 594 mmHg 62%
14:00 -2°C° 0 mm 1 mps 594 mmHg 62%
15:00 -2°C° 0 mm 1 mps 594 mmHg 62%
16:00 -4°C° 0 mm 1 mps 593 mmHg 61%
17:00 -7°C° 0 mm 1 mps 593 mmHg 60%
18:00 -9°C° 0 mm 2 mps 593 mmHg 60%
19:00 -9°C° 0 mm 2 mps 593 mmHg 61%
20:00 -10°C° 0 mm 2 mps 593 mmHg 62%
21:00 -10°C° 0 mm 2 mps 593 mmHg 62%
22:00 -10°C° 0 mm 2 mps 593 mmHg 65%
23:00 -10°C° 0 mm 2 mps 593 mmHg 68%

28 Noviembre, Sábado

Tiempo Temperatura Precipitaciones Viento Presión Humedad
00:00 -10°C° 0 mm 2 mps 593 mmHg 71%
01:00 -10°C° 0 mm 2 mps 593 mmHg 74%
02:00 -10°C° 0 mm 2 mps 593 mmHg 76%
03:00 -10°C° 0 mm 2 mps 593 mmHg 79%
04:00 -9°C° 0 mm 1 mps 593 mmHg 81%
05:00 -9°C° 0 mm 1 mps 593 mmHg 83%
06:00 -10°C° 0 mm 1 mps 593 mmHg 84%
07:00 -9°C° 0 mm 1 mps 593 mmHg 84%
08:00 -8°C° 0 mm 1 mps 594 mmHg 84%
09:00 -7°C° 0 mm 1 mps 594 mmHg 84%
10:00 -4°C° 0 mm 1 mps 595 mmHg 81%
11:00 -3°C° 0 mm 1 mps 595 mmHg 78%
12:00 -1°C° 0 mm 1 mps 595 mmHg 75%
13:00 -1°C° 0 mm 1 mps 595 mmHg 75%
14:00 -1°C° 0 mm 1 mps 594 mmHg 76%
15:00 -1°C° 0 mm 1 mps 594 mmHg 76%
16:00 -3°C° 0 mm 1 mps 594 mmHg 77%
17:00 -4°C° 0 mm 1 mps 593 mmHg 77%
18:00 -7°C° 0 mm 1 mps 593 mmHg 78%
19:00 -7°C° 0 mm 1 mps 593 mmHg 75%
20:00 -7°C° 0 mm 1 mps 593 mmHg 73%
21:00 -8°C° 0 mm 1 mps 593 mmHg 70%
22:00 -8°C° 0 mm 1 mps 593 mmHg 66%
23:00 -8°C° 0 mm 0 mps 593 mmHg 62%

29 Noviembre, Domingo

Tiempo Temperatura Precipitaciones Viento Presión Humedad
00:00 -8°C° 0 mm 0 mps 593 mmHg 58%
01:00 -8°C° 0 mm 0 mps 593 mmHg 54%
02:00 -8°C° 0 mm 0 mps 593 mmHg 50%
03:00 -8°C° 0 mm 0 mps 593 mmHg 47%
04:00 -8°C° 0 mm 0 mps 593 mmHg 45%
05:00 -8°C° 0 mm 0 mps 593 mmHg 43%
06:00 -8°C° 0 mm 1 mps 593 mmHg 40%
07:00 -7°C° 0 mm 0 mps 593 mmHg 41%
08:00 -6°C° 0 mm 0 mps 594 mmHg 41%
09:00 -4°C° 0 mm 0 mps 595 mmHg 41%
10:00 -3°C° 0 mm 0 mps 595 mmHg 43%
11:00 -1°C° 0 mm 0 mps 595 mmHg 46%
12:00 0°C° 0 mm 0 mps 596 mmHg 48%
13:00 0°C° 0 mm 0 mps 595 mmHg 48%
14:00 0°C° 0 mm 0 mps 595 mmHg 49%
15:00 -1°C° 0 mm 0 mps 594 mmHg 49%
16:00 -2°C° 0 mm 0 mps 594 mmHg 46%
17:00 -4°C° 0 mm 0 mps 593 mmHg 44%
18:00 -4°C° 0 mm 1 mps 593 mmHg 42%
19:00 -6°C° 0 mm 1 mps 593 mmHg 39%
20:00 -6°C° 0 mm 0 mps 593 mmHg 36%
21:00 -6°C° 0 mm 0 mps 593 mmHg 33%
22:00 -6°C° 0 mm 1 mps 593 mmHg 32%
23:00 -6°C° 0 mm 1 mps 593 mmHg 31%
Mostrar más

Necesitamos Su Consentimiento

Meteoprog y nuestros Proveedores de Servicios pueden almacenar y acceder a sus datos personales como cookies, identificadores de dispositivo u otras tecnologías similares de su dispositivo y procesar dichos datos para personalizar contenido y anuncios, además de ofrecer funciones de redes sociales y analizar el tráfico.

  • Almacenar y/o acceder a información en su dispositivo

    Se puede almacenar o acceder a cookies, identificadores de dispositivo u otra información de su dispositivo para los fines anteriormente indicados.

  • Anuncios y contenido personalizados, medición de anuncios y contenido, percepciones del público, y desarrollo de productos

    Los anuncios y el contenido pueden personalizarse en base a su perfil. Se pueden añadir más datos para personalizar mejor los anuncios y contenidos. Se puede medir el rendimiento de los anuncios y contenidos. Se puede obtener la percepción sobre el público que ha visto los anuncios y contenidos. Dichos datos pueden usarse para desarrollar o mejorar la experiencia del usuario, sistemas y software.

Al hacer clic en ‘Estoy De Acuerdo’ usted permitirá el uso de las cookies, identificadores de dispositivo, balizas web u otras tecnologías similares indicadas. Su configuración puede cambiarse desde el navegador de su dispositivo.

Para ciertos fines, los intereses legítimos pueden ser considerados por encima del consentimiento. Puede leer más sobre ello en nuestra Política de Privacidad y Cookies.